SKYSAT-C5 (41772 NORAD) Tracking and Keplerian Element Data

This shows tracking and keplerian element data for the satellite.

Feedback or suggestion? Click here.




ElementValue
Catalog41772
NameSKYSAT-C5
Epoch Orbit12079
Epoch Day323.13214635
Epoch Year2018
RAAN31.4801
Inclination97.4244
Eccentricity0.0001185
Argument of Perigee105.9383
Mean Anonmoly310.7561
Mean Motion15.23019215
Decay Rate3.89E-06
L11 41772U 16058C 18323.13214635 .00000389 00000-0 19494-4 0 9994
L22 41772 97.4244 31.4801 0001185 105.9383 310.7561 15.23019215120795

Live tracking and technical data element details for SKYSAT-C5 (NORAD 41772). SKYSAT-C5 can be tracked NOW for your location showing map with azimuth and elevation plus other details from your city location.

Track the satellite on the map from your city or location and see movement details for azimuth, elevation, latitude, longitude, range, height, and movement on the map or in text.







IsCatalogInMostPopularTable: catalog: 41772, numindb: 110
Update: records affected: 1



GetName: 41772 SKYSAT-C5

Hit Count: updated at: Mon, 19 Nov 2018 11:07:40 GMT